SHIJIAN-16 (SJ-16)

Last updated on Mon Jun 22 2026 00:02:14 GMT+0000 (Coordinated Universal Time)

1 39358U 13057A 26172.52913650 .00001372 00000+0 13578-3 0 9992 2 39358 74.9732 348.4587 0016708 220.7333 139.2607 14.92613704686996
UTC large
Height (km)
Speed (km/s)
/
Latitude / Longitude
Inclination (degrees)
Orbital Period (minutes)
Azimuth
Elevation
Range (km)
Doppler Factor

Next 0 passes for location: London (51.5072 / 0.1276)

No passes found over London.
SHIJIAN-16 (SJ-16)